Flag for Germany Weather past 2 weeks in Heidelberg, Baden-Württemberg, Germany

Now
82 °F

Passing clouds.


Feels Like: 81 °F
Forecast: 63 / 83 °F
Wind: 8 mph from South

Location: Baden Wurttemberg - Neuostheim

Current Time: Aug 3, 2015 at 11:22:07 AM

Latest Report: Aug 3, 2015 at 10:50 AM


Visibility: N/A

Pressure: 30.04 "Hg

Humidity: 35%

Dew point: 52 °F

Location of HeidelbergLocation

Historic Weather in Heidelberg — Graph

°F

Heidelberg temperature yesterday

Maximum temperature yesterday: 86 °F (at 4:20 PM)
Minimum temperature yesterday: 63 °F (at 7:50 AM)
Average temperature yesterday: 79 °F

Past Weeks' High & Low Weather Summary

 TemperatureHumidityPressure
High93 °F (Jul 22, 3:50 PM)100% (Jul 19, 2:50 PM)30.12 "Hg (Jul 19, 2:50 PM)
Low50 °F (Jul 30, 5:50 AM)23% (Jul 30, 5:50 PM)29.65 "Hg (Jul 24, 7:50 PM)
Average73 °F53%29.92 "Hg
* Reported Jul 19 9:20 AM — Aug 3 9:50 AM, Heidelberg, Weather by CustomWeather, © 2015

Note: Actual official high and low records may vary slightly from our data, if they occured in-between our weather recording intervals... More about our weather records

Advertising

Heidelberg weather history for previous 24 hours

 ConditionsComfort  
Time TempWeatherWind HumidityBarometerVisibility
9:50 AM
Mon, Aug 3
77 °FSunny.3 mph44%30.04 "Hg10 mi
9:20 AM73 °FSunny.2 mph50%30.04 "Hg10 mi
8:50 AM73 °FSunny.1 mph50%30.04 "Hg10 mi
8:20 AM70 °FSunny.3 mph57%30.04 "Hg10 mi
7:50 AM68 °FSunny.2 mph60%30.04 "Hg10 mi
7:20 AM66 °FSunny.1 mph68%30.04 "Hg10 mi
6:50 AM63 °FClear.2 mph77%30.04 "Hg10 mi
5:50 AM61 °FClear.1 mph77%30.04 "Hg10 mi
8:20 PM
Sun, Aug 2
84 °FSunny.3 mph29%30.01 "Hg10 mi
7:50 PM84 °FSunny.2 mph29%30.01 "Hg10 mi
7:20 PM84 °FPassing clouds.5 mph29%30.04 "HgN/A
6:50 PM86 °FSunny.3 mph27%30.04 "Hg10 mi
6:20 PM86 °FPassing clouds.6 mph27%30.04 "HgN/A
5:50 PM86 °FSunny.3 mph27%30.04 "Hg10 mi
5:20 PM84 °FPassing clouds.6 mph29%30.04 "HgN/A
4:50 PM84 °FPassing clouds.6 mph29%30.04 "HgN/A
4:20 PM86 °FSunny.5 mph27%30.04 "Hg10 mi
3:50 PM84 °FPassing clouds.6 mph31%30.07 "HgN/A
3:20 PM84 °FSunny.5 mph29%30.07 "Hg10 mi
2:50 PM84 °FPassing clouds.5 mph29%30.07 "HgN/A
2:20 PM82 °FSunny.6 mph30%30.09 "Hg10 mi
1:50 PM81 °FSunny.5 mph34%30.09 "Hg10 mi
1:20 PM81 °FSunny.3 mph34%30.09 "Hg10 mi
12:50 PM81 °FSunny.3 mph34%30.09 "Hg10 mi
12:20 PM79 °FSunny.3 mph39%30.09 "Hg10 mi
11:50 AM77 °FSunny.2 mph42%30.12 "Hg10 mi
11:20 AM75 °FPassing clouds.5 mph41%30.12 "HgN/A
Weather by CustomWeather, © 2015

See weather overviewHow to use our weather pages